Location: Newark
(36.1358°N, 115.1208°W)
Time: 10:43:35
(UTC+00:00)

ISS - Pass Details

Date: 21 January 2021
Orbit: 417 x 422 km, 51.6° (Epoch: 28 February)

Event Time Altitude Azimuth Distance (km) Brightness Sun altitude
Rises 01:19:42 0° 230° (SW) 2,355 1.7 -5.4°
Reaches altitude 10° 01:21:47 10° 231° (SW) 1,496 0.5 -5.8°
Maximum altitude 01:25:09 80° 318° (NW) 431 -3.7 -6.5°
Drops below altitude 10° 01:28:32 10° 46° (NE) 1,506 -1.5 -7.1°
Enters shadow 01:28:59 - 47° (NE) 1,690 -1.3 -7.2°
